JZR647 LTFJ-OKKK

Flight info

Callsign JZR647
Flight time 2h 52m
Altitude 37000
Route VICEN1J VICEN T57 ZAPWI UT57 VEVUD UT341 BAG UG8 OTKEP UM688 RATVO M688 KEDIM DCT SISIN M688 SIDAD SIDAD1H
Aircraft A320/M-SDGWY/S

Departure

Time 2026-04-29 22:25
Airport Istanbul Sabiha Gökçen International Airport (LTFJ)

Arrival

Time 2026-04-30 01:17
Airport Kuwait International Airport (OKKK)
Time Latitude Longitude Altitude Speed Heading
2026-04-29 21:50 40.90615 29.31573 311 ft 0 kts 334°
2026-04-29 22:14 40.90612 29.31575 311 ft 2 kts 334°
2026-04-29 22:14 40.90596 29.31585 310 ft 3 kts 334°
2026-04-29 22:14 40.90578 29.31597 311 ft 3 kts 331°
2026-04-29 22:15 40.90560 29.31610 310 ft 3 kts 329°
2026-04-29 22:15 40.90543 29.31624 310 ft 3 kts 326°
2026-04-29 22:15 40.90526 29.31640 309 ft 3 kts 321°
2026-04-29 22:15 40.90511 29.31657 310 ft 3 kts 313°
2026-04-29 22:16 40.90504 29.31668 309 ft 1 kts 309°
2026-04-29 22:16 40.90503 29.31670 309 ft 0 kts 309°
2026-04-29 22:18 40.90515 29.31650 308 ft 6 kts 305°
2026-04-29 22:18 40.90510 29.31600 311 ft 5 kts 243°
2026-04-29 22:18 40.90494 29.31559 310 ft 7 kts 244°
2026-04-29 22:18 40.90465 29.31479 310 ft 10 kts 244°
2026-04-29 22:19 40.90423 29.31432 310 ft 8 kts 175°
2026-04-29 22:19 40.90378 29.31459 310 ft 7 kts 154°
2026-04-29 22:19 40.90341 29.31483 310 ft 5 kts 153°
2026-04-29 22:19 40.90306 29.31504 310 ft 7 kts 163°
2026-04-29 22:20 40.90251 29.31429 310 ft 16 kts 244°
2026-04-29 22:20 40.90194 29.31276 309 ft 21 kts 245°
2026-04-29 22:20 40.90134 29.31113 310 ft 19 kts 244°
2026-04-29 22:20 40.90080 29.30963 308 ft 17 kts 244°
2026-04-29 22:21 40.90024 29.30806 308 ft 21 kts 245°
2026-04-29 22:21 40.89958 29.30630 308 ft 21 kts 244°
2026-04-29 22:21 40.89895 29.30461 308 ft 20 kts 243°
2026-04-29 22:21 40.89837 29.30306 308 ft 18 kts 244°
2026-04-29 22:22 40.89785 29.30165 306 ft 17 kts 244°
2026-04-29 22:22 40.89736 29.30033 307 ft 15 kts 245°
2026-04-29 22:22 40.89691 29.29907 305 ft 17 kts 245°
2026-04-29 22:22 40.89628 29.29735 304 ft 25 kts 244°
2026-04-29 22:23 40.89552 29.29528 303 ft 25 kts 244°
2026-04-29 22:23 40.89482 29.29335 303 ft 20 kts 244°
2026-04-29 22:23 40.89417 29.29252 303 ft 13 kts 180°
2026-04-29 22:23 40.89337 29.29291 303 ft 11 kts 155°
2026-04-29 22:24 40.89276 29.29329 304 ft 6 kts 153°
2026-04-29 22:24 40.89279 29.29359 304 ft 6 kts 71°
2026-04-29 22:24 40.89389 29.29658 305 ft 73 kts 64°
2026-04-29 22:24 40.89705 29.30512 308 ft 132 kts 64°
2026-04-29 22:25 40.90155 29.31742 619 ft 151 kts 62°
2026-04-29 22:25 40.90615 29.32984 1288 ft 153 kts 64°
2026-04-29 22:25 40.91112 29.34321 1692 ft 173 kts 65°
2026-04-29 22:25 40.91671 29.35847 1999 ft 197 kts 65°
2026-04-29 22:26 40.92304 29.37578 2382 ft 221 kts 65°
2026-04-29 22:26 40.93009 29.39501 2899 ft 240 kts 64°
2026-04-29 22:26 40.93683 29.41553 3685 ft 248 kts 76°
2026-04-29 22:26 40.93666 29.43823 4379 ft 261 kts 107°
2026-04-29 22:27 40.92982 29.46096 5149 ft 270 kts 112°
2026-04-29 22:27 40.92249 29.48410 5991 ft 275 kts 111°
2026-04-29 22:27 40.91505 29.50772 6732 ft 285 kts 111°
2026-04-29 22:27 40.90726 29.53272 7227 ft 303 kts 111°
2026-04-29 22:28 40.89904 29.55917 7734 ft 320 kts 111°
2026-04-29 22:28 40.89038 29.58701 8236 ft 335 kts 111°
2026-04-29 22:28 40.88133 29.61610 8784 ft 348 kts 111°
2026-04-29 22:28 40.87201 29.64598 9505 ft 355 kts 111°
2026-04-29 22:29 40.86267 29.67596 10236 ft 361 kts 111°
2026-04-29 22:29 40.85307 29.70675 10952 ft 364 kts 112°
2026-04-29 22:29 40.84339 29.73783 11697 ft 368 kts 112°
2026-04-29 22:29 40.83358 29.76927 12421 ft 372 kts 112°
2026-04-29 22:30 40.82366 29.80099 13144 ft 376 kts 113°
2026-04-29 22:30 40.81363 29.83305 13853 ft 380 kts 113°
2026-04-29 22:30 40.80350 29.86543 14479 ft 384 kts 113°
2026-04-29 22:30 40.79320 29.89816 15088 ft 388 kts 113°
2026-04-29 22:31 40.78280 29.93116 15683 ft 392 kts 113°
2026-04-29 22:31 40.77229 29.96452 16287 ft 396 kts 113°
2026-04-29 22:31 40.76180 29.99776 16866 ft 400 kts 113°
2026-04-29 22:31 40.75105 30.03182 17450 ft 404 kts 113°
2026-04-29 22:32 40.74019 30.06619 18046 ft 408 kts 113°
2026-04-29 22:32 40.72922 30.10086 18608 ft 412 kts 113°
2026-04-29 22:32 40.71814 30.13584 19131 ft 415 kts 113°
2026-04-29 22:32 40.70699 30.17108 19658 ft 419 kts 113°
2026-04-29 22:33 40.69571 30.20665 20185 ft 422 kts 113°
2026-04-29 22:33 40.68433 30.24243 20730 ft 425 kts 113°
2026-04-29 22:33 40.67272 30.27842 21219 ft 429 kts 115°
2026-04-29 22:33 40.65844 30.31238 21699 ft 431 kts 124°
2026-04-29 22:34 40.64054 30.34408 22176 ft 434 kts 129°
2026-04-29 22:34 40.62195 30.37553 22655 ft 437 kts 129°
2026-04-29 22:34 40.60324 30.40721 23135 ft 440 kts 129°
2026-04-29 22:34 40.58444 30.43909 23596 ft 443 kts 129°
2026-04-29 22:35 40.56555 30.47120 23992 ft 446 kts 129°
2026-04-29 22:35 40.54766 30.50470 24340 ft 450 kts 121°
2026-04-29 22:35 40.53365 30.54156 24696 ft 453 kts 112°
2026-04-29 22:35 40.52418 30.58054 25033 ft 455 kts 103°
2026-04-29 22:36 40.51713 30.62121 25378 ft 458 kts 102°
2026-04-29 22:36 40.50995 30.66209 25721 ft 460 kts 102°
2026-04-29 22:36 40.50264 30.70317 26067 ft 463 kts 103°
2026-04-29 22:36 40.49512 30.74440 26408 ft 465 kts 104°
2026-04-29 22:37 40.48660 30.78551 26734 ft 468 kts 105°
2026-04-29 22:37 40.47707 30.82646 27048 ft 470 kts 107°
2026-04-29 22:37 40.46693 30.86740 27371 ft 473 kts 108°
2026-04-29 22:37 40.45652 30.90849 27665 ft 475 kts 108°
2026-04-29 22:38 40.44627 30.94919 27960 ft 477 kts 107°
2026-04-29 22:38 40.43599 30.99067 28266 ft 479 kts 107°
2026-04-29 22:38 40.42587 31.03246 28541 ft 481 kts 107°
2026-04-29 22:38 40.41589 31.07448 28805 ft 484 kts 106°
2026-04-29 22:39 40.40597 31.11669 29075 ft 485 kts 106°
2026-04-29 22:39 40.39598 31.15906 29328 ft 487 kts 106°
2026-04-29 22:39 40.38586 31.20162 29569 ft 489 kts 107°
2026-04-29 22:39 40.37725 31.24483 29836 ft 490 kts 101°
2026-04-29 22:40 40.37028 31.28840 30183 ft 489 kts 101°
2026-04-29 22:40 40.36332 31.33145 30485 ft 488 kts 101°
2026-04-29 22:40 40.35626 31.37490 30781 ft 487 kts 101°
2026-04-29 22:40 40.34918 31.41831 31077 ft 487 kts 101°
2026-04-29 22:41 40.34208 31.46164 31375 ft 486 kts 101°
2026-04-29 22:41 40.33496 31.50489 31678 ft 485 kts 101°
2026-04-29 22:41 40.32785 31.54806 31976 ft 484 kts 101°
2026-04-29 22:41 40.32072 31.59119 32272 ft 484 kts 101°
2026-04-29 22:42 40.31357 31.63421 32589 ft 483 kts 101°
2026-04-29 22:42 40.30644 31.67712 32885 ft 482 kts 101°
2026-04-29 22:42 40.29933 31.72001 33172 ft 482 kts 101°
2026-04-29 22:42 40.29232 31.76225 33478 ft 481 kts 101°
2026-04-29 22:43 40.28522 31.80506 33781 ft 480 kts 101°
2026-04-29 22:43 40.27812 31.84780 34086 ft 480 kts 101°
2026-04-29 22:43 40.27099 31.89041 34330 ft 479 kts 101°
2026-04-29 22:43 40.26362 31.93300 34576 ft 479 kts 102°
2026-04-29 22:44 40.25535 31.97524 34828 ft 479 kts 104°
2026-04-29 22:44 40.24630 32.01722 35050 ft 479 kts 105°
2026-04-29 22:44 40.23681 32.05903 35253 ft 479 kts 106°
2026-04-29 22:44 40.22717 32.10079 35478 ft 479 kts 106°
2026-04-29 22:45 40.21776 32.14195 35691 ft 479 kts 106°
2026-04-29 22:45 40.20839 32.18376 35903 ft 478 kts 105°
2026-04-29 22:45 40.19920 32.22555 36108 ft 478 kts 105°
2026-04-29 22:45 40.19011 32.26740 36315 ft 478 kts 105°
2026-04-29 22:46 40.18104 32.30920 36513 ft 478 kts 105°
2026-04-29 22:46 40.17195 32.35098 36708 ft 478 kts 105°
2026-04-29 22:46 40.16284 32.39268 36906 ft 477 kts 106°
2026-04-29 22:46 40.15369 32.43442 37075 ft 477 kts 106°
2026-04-29 22:47 40.14459 32.47562 37122 ft 480 kts 106°
2026-04-29 22:47 40.12583 32.55993 37120 ft 486 kts 106°
2026-04-29 22:48 40.10683 32.64489 37112 ft 488 kts 106°
2026-04-29 22:48 40.08786 32.72992 37113 ft 488 kts 106°
2026-04-29 22:49 40.06874 32.81488 37119 ft 487 kts 108°
2026-04-29 22:49 40.04636 32.89773 37112 ft 487 kts 111°
2026-04-29 22:50 40.02102 32.97971 37124 ft 488 kts 112°
2026-04-29 22:50 39.99563 33.06179 37122 ft 488 kts 112°
2026-04-29 22:51 39.97115 33.14427 37129 ft 488 kts 111°
2026-04-29 22:51 39.93509 33.26750 37128 ft 487 kts 111°
2026-04-29 22:52 39.91062 33.34979 37124 ft 487 kts 112°
2026-04-29 22:52 39.88598 33.43187 37119 ft 486 kts 112°
2026-04-29 22:53 39.86130 33.51379 37114 ft 486 kts 112°
2026-04-29 22:53 39.83687 33.59515 37117 ft 486 kts 111°
2026-04-29 22:54 39.81826 33.67963 37124 ft 486 kts 105°
2026-04-29 22:54 39.80110 33.76454 37121 ft 485 kts 105°
2026-04-29 22:55 39.78381 33.84934 37119 ft 485 kts 105°
2026-04-29 22:55 39.76345 33.93201 37113 ft 484 kts 111°
2026-04-29 22:56 39.74019 34.01408 37113 ft 484 kts 111°
2026-04-29 22:56 39.71692 34.09604 37108 ft 484 kts 111°
2026-04-29 22:57 39.69365 34.17798 37109 ft 483 kts 111°
2026-04-29 22:57 39.67049 34.25924 37100 ft 483 kts 111°
2026-04-29 22:58 39.64703 34.34097 37104 ft 483 kts 111°
2026-04-29 22:58 39.62351 34.42270 37102 ft 483 kts 111°
2026-04-29 22:59 39.60000 34.50435 37110 ft 483 kts 111°
2026-04-29 22:59 39.57659 34.58545 37104 ft 483 kts 111°
2026-04-29 23:00 39.55294 34.66696 37110 ft 483 kts 111°
2026-04-29 23:00 39.52919 34.74834 37108 ft 483 kts 112°
2026-04-29 23:01 39.50548 34.82967 37113 ft 482 kts 111°
2026-04-29 23:01 39.48174 34.91092 37108 ft 482 kts 112°
2026-04-29 23:02 39.45810 34.99147 37098 ft 482 kts 112°
2026-04-29 23:02 39.43423 35.07261 37098 ft 482 kts 112°
2026-04-29 23:03 39.41027 35.15366 37095 ft 483 kts 112°
2026-04-29 23:03 39.38637 35.23481 37091 ft 483 kts 112°
2026-04-29 23:04 39.36303 35.31570 37090 ft 484 kts 112°
2026-04-29 23:04 39.33956 35.39726 37091 ft 485 kts 112°
2026-04-29 23:05 39.31590 35.47879 37097 ft 485 kts 112°
2026-04-29 23:05 39.29203 35.56021 37098 ft 485 kts 112°
2026-04-29 23:06 39.26824 35.64109 37107 ft 485 kts 112°
2026-04-29 23:06 39.24432 35.72258 37118 ft 485 kts 112°
2026-04-29 23:07 39.22040 35.80397 37117 ft 485 kts 112°
2026-04-29 23:07 39.19640 35.88538 37123 ft 486 kts 112°
2026-04-29 23:08 39.17240 35.96606 37123 ft 486 kts 113°
2026-04-29 23:08 39.15132 36.04867 37119 ft 487 kts 102°
2026-04-29 23:09 39.14044 36.13489 37118 ft 488 kts 100°
2026-04-29 23:09 39.12952 36.22108 37118 ft 488 kts 101°
2026-04-29 23:10 39.11860 36.30679 37116 ft 488 kts 101°
2026-04-29 23:10 39.10753 36.39304 37115 ft 488 kts 101°
2026-04-29 23:11 39.09640 36.47920 37113 ft 488 kts 101°
2026-04-29 23:11 39.08521 36.56531 37111 ft 488 kts 101°
2026-04-29 23:12 39.07402 36.65085 37106 ft 488 kts 101°
2026-04-29 23:12 39.06272 36.73688 37106 ft 488 kts 101°
2026-04-29 23:13 39.05141 36.82284 37107 ft 487 kts 101°
2026-04-29 23:13 39.04000 36.90876 37104 ft 487 kts 101°
2026-04-29 23:14 39.02862 36.99405 37103 ft 487 kts 101°
2026-04-29 23:14 39.01708 37.07985 37102 ft 487 kts 101°
2026-04-29 23:15 39.00547 37.16553 37099 ft 486 kts 101°
2026-04-29 23:15 38.99384 37.25115 37099 ft 486 kts 101°
2026-04-29 23:16 38.98208 37.33667 37100 ft 486 kts 101°
2026-04-29 23:16 38.97034 37.42155 37103 ft 486 kts 102°
2026-04-29 23:17 38.95851 37.50705 37100 ft 486 kts 102°
2026-04-29 23:17 38.94669 37.59252 37099 ft 486 kts 102°
2026-04-29 23:18 38.93479 37.67797 37095 ft 486 kts 102°
2026-04-29 23:18 38.92282 37.76283 37093 ft 486 kts 102°
2026-04-29 23:19 38.91076 37.84832 37087 ft 487 kts 102°
2026-04-29 23:19 38.89857 37.93379 37084 ft 487 kts 102°
2026-04-29 23:20 38.88630 38.01927 37076 ft 487 kts 102°
2026-04-29 23:20 38.87407 38.10413 37076 ft 487 kts 102°
2026-04-29 23:21 38.86175 38.18958 37076 ft 487 kts 102°
2026-04-29 23:21 38.84933 38.27503 37069 ft 487 kts 102°
2026-04-29 23:22 38.83688 38.36037 37063 ft 487 kts 102°
2026-04-29 23:22 38.82445 38.44511 37060 ft 487 kts 102°
2026-04-29 23:23 38.81184 38.53036 37055 ft 487 kts 102°
2026-04-29 23:23 38.79915 38.61564 37054 ft 487 kts 102°
2026-04-29 23:24 38.78642 38.70088 37049 ft 487 kts 102°
2026-04-29 23:24 38.77376 38.78553 37048 ft 487 kts 102°
2026-04-29 23:25 38.76095 38.87071 37049 ft 487 kts 102°
2026-04-29 23:25 38.74806 38.95597 37054 ft 487 kts 102°
2026-04-29 23:26 38.73544 39.04122 37058 ft 487 kts 102°
2026-04-29 23:26 38.72290 39.12654 37066 ft 487 kts 102°
2026-04-29 23:27 38.71000 39.21167 37063 ft 486 kts 105°
2026-04-29 23:27 38.68829 39.29264 37066 ft 484 kts 112°
2026-04-29 23:28 38.66472 39.37333 37062 ft 484 kts 112°
2026-04-29 23:28 38.64117 39.45417 37061 ft 485 kts 112°
2026-04-29 23:29 38.61761 39.53493 37056 ft 485 kts 112°
2026-04-29 23:29 38.59430 39.61582 37056 ft 485 kts 112°
2026-04-29 23:30 38.57107 39.69696 37053 ft 488 kts 110°
2026-04-29 23:30 38.54738 39.77893 37051 ft 495 kts 111°
2026-04-29 23:31 38.52336 39.86149 37054 ft 496 kts 111°
2026-04-29 23:31 38.49942 39.94362 37057 ft 496 kts 111°
2026-04-29 23:32 38.47529 40.02617 37069 ft 496 kts 111°
2026-04-29 23:32 38.45113 40.10848 37071 ft 495 kts 111°
2026-04-29 23:33 38.42699 40.19064 37074 ft 494 kts 111°
2026-04-29 23:33 38.40277 40.27277 37073 ft 494 kts 111°
2026-04-29 23:34 38.37853 40.35479 37087 ft 494 kts 111°
2026-04-29 23:34 38.35423 40.43672 37092 ft 494 kts 111°
2026-04-29 23:35 38.32986 40.51855 37091 ft 494 kts 111°
2026-04-29 23:35 38.30549 40.60027 37085 ft 493 kts 111°
2026-04-29 23:36 38.28105 40.68179 37078 ft 493 kts 112°
2026-04-29 23:36 38.25667 40.76278 37078 ft 492 kts 112°
2026-04-29 23:37 38.23210 40.84417 37074 ft 492 kts 112°
2026-04-29 23:37 38.20711 40.92525 37060 ft 492 kts 112°
2026-04-29 23:38 38.18175 41.00604 37054 ft 492 kts 113°
2026-04-29 23:38 38.15641 41.08673 37048 ft 492 kts 112°
2026-04-29 23:39 38.13117 41.16750 37039 ft 492 kts 112°
2026-04-29 23:39 38.10644 41.24846 37040 ft 492 kts 112°
2026-04-29 23:40 38.08182 41.32957 37043 ft 492 kts 112°
2026-04-29 23:40 38.05704 41.41059 37040 ft 492 kts 112°
2026-04-29 23:41 38.03204 41.49150 37036 ft 493 kts 112°
2026-04-29 23:41 38.00693 41.57238 37038 ft 493 kts 112°
2026-04-29 23:42 37.98187 41.65329 37039 ft 493 kts 112°
2026-04-29 23:42 37.95674 41.73424 37038 ft 493 kts 112°
2026-04-29 23:43 37.93151 41.81513 37044 ft 493 kts 113°
2026-04-29 23:43 37.91061 41.89778 37041 ft 494 kts 100°
2026-04-29 23:44 37.90510 41.96979 37044 ft 495 kts 95°
2026-04-29 23:44 37.89971 42.05665 37053 ft 495 kts 95°
2026-04-29 23:45 37.89410 42.14346 37054 ft 495 kts 95°
2026-04-29 23:45 37.88750 42.24442 37059 ft 495 kts 95°
2026-04-29 23:46 37.88264 42.31718 37064 ft 495 kts 95°
2026-04-29 23:46 37.87676 42.40406 37068 ft 495 kts 95°
2026-04-29 23:47 37.87088 42.49093 37074 ft 495 kts 95°
2026-04-29 23:47 37.86491 42.57780 37078 ft 495 kts 96°
2026-04-29 23:48 37.85213 42.66301 37086 ft 492 kts 111°
2026-04-29 23:48 37.82125 42.73954 37085 ft 488 kts 123°
2026-04-29 23:49 37.78608 42.81304 37087 ft 489 kts 123°
2026-04-29 23:49 37.75087 42.88652 37089 ft 489 kts 123°
2026-04-29 23:50 37.71567 42.96002 37088 ft 489 kts 124°
2026-04-29 23:51 37.66273 43.07009 37096 ft 489 kts 124°
2026-04-29 23:51 37.62766 43.14285 37102 ft 489 kts 124°
2026-04-29 23:52 37.59226 43.21601 37105 ft 488 kts 124°
2026-04-29 23:52 37.55682 43.28905 37104 ft 488 kts 124°
2026-04-29 23:53 37.52133 43.36200 37103 ft 488 kts 124°
2026-04-29 23:53 37.48586 43.43486 37104 ft 488 kts 124°
2026-04-29 23:54 37.45041 43.50761 37102 ft 488 kts 124°
2026-04-29 23:54 37.41506 43.57989 37102 ft 488 kts 124°
2026-04-29 23:55 37.37943 43.65253 37092 ft 488 kts 124°
2026-04-29 23:55 37.34370 43.72530 37095 ft 489 kts 124°
2026-04-29 23:56 37.30796 43.79795 37090 ft 488 kts 125°
2026-04-29 23:56 37.27222 43.86980 37086 ft 487 kts 128°
2026-04-29 23:57 37.22609 43.93034 37078 ft 476 kts 148°
2026-04-29 23:57 37.16827 43.96831 37076 ft 466 kts 164°
2026-04-29 23:58 37.10741 43.99654 37079 ft 467 kts 164°
2026-04-29 23:58 37.04637 44.02495 37074 ft 468 kts 164°
2026-04-29 23:59 36.98572 44.05322 37072 ft 468 kts 164°
2026-04-29 23:59 36.92463 44.08161 37072 ft 468 kts 164°
2026-04-30 00:00 36.86355 44.10996 37070 ft 468 kts 164°
2026-04-30 00:00 36.80248 44.13818 37066 ft 468 kts 164°
2026-04-30 00:01 36.74131 44.16582 37063 ft 467 kts 166°
2026-04-30 00:01 36.67961 44.19106 37070 ft 467 kts 167°
2026-04-30 00:02 36.61769 44.21553 37072 ft 466 kts 167°
2026-04-30 00:02 36.55626 44.24024 37073 ft 466 kts 167°
2026-04-30 00:03 36.49463 44.26549 37071 ft 466 kts 167°
2026-04-30 00:03 36.43299 44.29077 37062 ft 466 kts 167°
2026-04-30 00:04 36.37129 44.31589 37062 ft 467 kts 167°
2026-04-30 00:04 36.30952 44.34091 37062 ft 467 kts 167°
2026-04-30 00:05 36.24782 44.36588 37062 ft 467 kts 167°
2026-04-30 00:05 36.18599 44.39083 37063 ft 467 kts 167°
2026-04-30 00:06 36.12429 44.41570 37058 ft 466 kts 167°
2026-04-30 00:06 36.06256 44.44052 37055 ft 466 kts 167°
2026-04-30 00:07 36.00088 44.46525 37054 ft 466 kts 167°
2026-04-30 00:07 35.93919 44.49001 37051 ft 466 kts 167°
2026-04-30 00:08 35.87746 44.51477 37054 ft 466 kts 167°
2026-04-30 00:08 35.81608 44.53936 37053 ft 466 kts 167°
2026-04-30 00:09 35.75440 44.56404 37051 ft 466 kts 168°
2026-04-30 00:09 35.69268 44.58866 37042 ft 466 kts 168°
2026-04-30 00:10 35.63097 44.61319 37052 ft 466 kts 168°
2026-04-30 00:10 35.56927 44.63778 37044 ft 466 kts 168°
2026-04-30 00:11 35.50753 44.66226 37044 ft 466 kts 168°
2026-04-30 00:11 35.44586 44.68665 37052 ft 466 kts 168°
2026-04-30 00:12 35.38414 44.71104 37038 ft 465 kts 168°
2026-04-30 00:12 35.32247 44.73544 37047 ft 465 kts 168°
2026-04-30 00:13 35.26087 44.75977 37038 ft 465 kts 168°
2026-04-30 00:13 35.19930 44.78393 37031 ft 465 kts 168°
2026-04-30 00:14 35.13779 44.80807 37029 ft 464 kts 168°
2026-04-30 00:14 35.07625 44.83225 37025 ft 464 kts 168°
2026-04-30 00:15 35.01517 44.85625 37026 ft 464 kts 168°
2026-04-30 00:15 34.95371 44.88032 37021 ft 463 kts 168°
2026-04-30 00:16 34.89230 44.90424 37017 ft 463 kts 168°
2026-04-30 00:16 34.83091 44.92817 37013 ft 463 kts 168°
2026-04-30 00:17 34.76963 44.95200 37006 ft 463 kts 168°
2026-04-30 00:17 34.70835 44.97586 37002 ft 462 kts 168°
2026-04-30 00:18 34.64706 44.99973 37001 ft 462 kts 169°
2026-04-30 00:18 34.58581 45.02348 36999 ft 462 kts 169°
2026-04-30 00:19 34.52464 45.04712 36993 ft 461 kts 169°
2026-04-30 00:19 34.46348 45.07071 36988 ft 461 kts 169°
2026-04-30 00:20 34.40234 45.09428 36985 ft 461 kts 169°
2026-04-30 00:20 34.34121 45.11785 36980 ft 461 kts 169°
2026-04-30 00:21 34.28009 45.14136 36976 ft 461 kts 169°
2026-04-30 00:21 34.21893 45.16482 36974 ft 461 kts 169°
2026-04-30 00:22 34.15783 45.18826 36967 ft 461 kts 169°
2026-04-30 00:22 34.09671 45.21165 36967 ft 461 kts 169°
2026-04-30 00:23 34.03562 45.23501 36963 ft 461 kts 169°
2026-04-30 00:23 33.97480 45.25817 36963 ft 461 kts 169°
2026-04-30 00:24 33.91365 45.28146 36968 ft 461 kts 169°
2026-04-30 00:24 33.85245 45.30483 36976 ft 461 kts 169°
2026-04-30 00:25 33.79127 45.32817 36984 ft 461 kts 169°
2026-04-30 00:25 33.73012 45.35135 36990 ft 461 kts 169°
2026-04-30 00:26 33.66891 45.37443 37001 ft 461 kts 169°
2026-04-30 00:26 33.60778 45.39747 37008 ft 461 kts 169°
2026-04-30 00:27 33.54655 45.42063 37014 ft 461 kts 169°
2026-04-30 00:27 33.48535 45.44381 37010 ft 461 kts 169°
2026-04-30 00:28 33.42416 45.46679 37015 ft 461 kts 169°
2026-04-30 00:28 33.36333 45.48969 37017 ft 461 kts 169°
2026-04-30 00:29 33.30211 45.51271 37017 ft 461 kts 170°
2026-04-30 00:29 33.24090 45.53566 37014 ft 461 kts 170°
2026-04-30 00:30 33.17965 45.55861 37017 ft 461 kts 170°
2026-04-30 00:30 33.11842 45.58158 37017 ft 461 kts 170°
2026-04-30 00:31 33.05718 45.60447 37014 ft 461 kts 170°
2026-04-30 00:31 32.99590 45.62718 37014 ft 461 kts 170°
2026-04-30 00:32 32.93467 45.64988 37017 ft 460 kts 170°
2026-04-30 00:32 32.87387 45.67251 37014 ft 460 kts 171°
2026-04-30 00:33 32.81517 45.70558 37017 ft 480 kts 152°
2026-04-30 00:33 32.76229 45.75482 37017 ft 483 kts 150°
2026-04-30 00:34 32.70942 45.80420 37008 ft 483 kts 150°
2026-04-30 00:34 32.65657 45.85337 37004 ft 483 kts 150°
2026-04-30 00:35 32.61258 45.89416 37006 ft 483 kts 150°
2026-04-30 00:35 32.55959 45.94329 37009 ft 483 kts 150°
2026-04-30 00:36 32.50661 45.99235 37006 ft 483 kts 150°
2026-04-30 00:36 32.45357 46.04134 37005 ft 484 kts 151°
2026-04-30 00:37 32.40046 46.09035 37006 ft 484 kts 151°
2026-04-30 00:37 32.34735 46.13946 37006 ft 485 kts 151°
2026-04-30 00:38 32.29423 46.18848 37007 ft 484 kts 151°
2026-04-30 00:38 32.24099 46.23731 37005 ft 485 kts 151°
2026-04-30 00:39 32.18768 46.28610 36999 ft 485 kts 151°
2026-04-30 00:39 32.13435 46.33494 36994 ft 485 kts 151°
2026-04-30 00:40 32.08100 46.38381 36987 ft 485 kts 151°
2026-04-30 00:40 32.02768 46.43258 36985 ft 485 kts 152°
2026-04-30 00:41 31.97467 46.48093 36977 ft 485 kts 152°
2026-04-30 00:41 31.92120 46.52956 36974 ft 486 kts 152°
2026-04-30 00:42 31.86774 46.57813 36962 ft 485 kts 152°
2026-04-30 00:42 31.81432 46.62674 36955 ft 485 kts 152°
2026-04-30 00:43 31.76087 46.67519 36945 ft 485 kts 152°
2026-04-30 00:43 31.70741 46.72359 36946 ft 485 kts 152°
2026-04-30 00:44 31.65400 46.77201 36941 ft 485 kts 152°
2026-04-30 00:44 31.60053 46.82027 36951 ft 485 kts 152°
2026-04-30 00:45 31.54707 46.86848 36946 ft 485 kts 152°
2026-04-30 00:45 31.49362 46.91663 36952 ft 484 kts 153°
2026-04-30 00:46 31.44018 46.96469 36945 ft 484 kts 153°
2026-04-30 00:46 31.38671 47.01269 36950 ft 484 kts 153°
2026-04-30 00:47 31.33323 47.06044 36948 ft 483 kts 153°
2026-04-30 00:47 31.27981 47.10822 36946 ft 483 kts 153°
2026-04-30 00:48 31.22677 47.15569 36942 ft 483 kts 153°
2026-04-30 00:48 31.17341 47.20331 36944 ft 483 kts 153°
2026-04-30 00:49 31.11993 47.25093 36954 ft 483 kts 153°
2026-04-30 00:49 31.06652 47.29840 36948 ft 482 kts 153°
2026-04-30 00:50 31.01316 47.34579 36950 ft 482 kts 153°
2026-04-30 00:50 30.95976 47.39318 36944 ft 482 kts 154°
2026-04-30 00:51 30.90645 47.44042 36948 ft 482 kts 154°
2026-04-30 00:51 30.85305 47.48767 36953 ft 482 kts 154°
2026-04-30 00:52 30.80065 47.53709 36951 ft 488 kts 149°
2026-04-30 00:52 30.75038 47.59081 36951 ft 492 kts 147°
2026-04-30 00:53 30.70056 47.64512 36777 ft 491 kts 148°
2026-04-30 00:53 30.67556 47.67176 36398 ft 485 kts 149°
2026-04-30 00:53 30.65063 47.69789 36034 ft 481 kts 149°
2026-04-30 00:53 30.62565 47.72373 35679 ft 480 kts 149°
2026-04-30 00:54 30.60068 47.74939 35322 ft 480 kts 149°
2026-04-30 00:54 30.57564 47.77509 34982 ft 481 kts 149°
2026-04-30 00:54 30.55060 47.80083 34639 ft 482 kts 149°
2026-04-30 00:54 30.52550 47.82675 34300 ft 483 kts 149°
2026-04-30 00:55 30.50045 47.85278 33969 ft 484 kts 149°
2026-04-30 00:55 30.47540 47.87884 33575 ft 485 kts 149°
2026-04-30 00:55 30.42500 47.93113 32759 ft 486 kts 148°
2026-04-30 00:56 30.39987 47.95716 32315 ft 483 kts 148°
2026-04-30 00:56 30.37492 47.98299 31886 ft 480 kts 148°
2026-04-30 00:56 30.35016 48.00863 31465 ft 476 kts 148°
2026-04-30 00:56 30.32550 48.03413 31051 ft 472 kts 148°
2026-04-30 00:57 30.30108 48.05933 30647 ft 469 kts 147°
2026-04-30 00:57 30.27683 48.08434 30248 ft 465 kts 147°
2026-04-30 00:57 30.25277 48.10914 29841 ft 462 kts 147°
2026-04-30 00:57 30.22882 48.13376 29368 ft 458 kts 147°
2026-04-30 00:58 30.18190 48.18193 28459 ft 451 kts 147°
2026-04-30 00:58 30.15854 48.20590 27972 ft 447 kts 147°
2026-04-30 00:58 30.13540 48.22963 27461 ft 443 kts 147°
2026-04-30 00:59 30.11248 48.25316 26958 ft 439 kts 146°
2026-04-30 00:59 30.08978 48.27646 26461 ft 434 kts 146°
2026-04-30 00:59 30.06731 48.29950 25978 ft 430 kts 146°
2026-04-30 00:59 30.04504 48.32229 25493 ft 425 kts 146°
2026-04-30 01:00 30.02303 48.34478 24990 ft 421 kts 146°
2026-04-30 01:00 30.00150 48.36679 24502 ft 417 kts 146°
2026-04-30 01:00 29.97992 48.38883 24021 ft 413 kts 146°
2026-04-30 01:00 29.95849 48.41068 23545 ft 409 kts 146°
2026-04-30 01:01 29.93725 48.43233 23016 ft 406 kts 146°
2026-04-30 01:01 29.91624 48.45379 22489 ft 402 kts 146°
2026-04-30 01:01 29.89458 48.47347 22001 ft 389 kts 156°
2026-04-30 01:01 29.87045 48.48558 21521 ft 371 kts 172°
2026-04-30 01:02 29.84544 48.48954 21019 ft 357 kts 186°
2026-04-30 01:02 29.82142 48.48673 20515 ft 349 kts 193°
2026-04-30 01:02 29.79743 48.48262 19986 ft 348 kts 193°
2026-04-30 01:02 29.77355 48.47854 19471 ft 346 kts 193°
2026-04-30 01:03 29.74972 48.47453 18963 ft 345 kts 192°
2026-04-30 01:03 29.72603 48.47056 18479 ft 344 kts 192°
2026-04-30 01:03 29.70241 48.46657 17964 ft 343 kts 192°
2026-04-30 01:03 29.67884 48.46261 17418 ft 341 kts 192°
2026-04-30 01:04 29.65542 48.45868 16907 ft 340 kts 192°
2026-04-30 01:04 29.63241 48.45480 16426 ft 338 kts 192°
2026-04-30 01:04 29.60923 48.45090 15948 ft 336 kts 192°
2026-04-30 01:04 29.58616 48.44702 15486 ft 334 kts 192°
2026-04-30 01:05 29.56321 48.44315 15020 ft 333 kts 193°
2026-04-30 01:05 29.54038 48.43930 14565 ft 331 kts 193°
2026-04-30 01:05 29.51766 48.43548 14126 ft 329 kts 193°
2026-04-30 01:05 29.49506 48.43171 13696 ft 327 kts 193°
2026-04-30 01:06 29.47257 48.42800 13198 ft 326 kts 193°
2026-04-30 01:06 29.45048 48.42438 12701 ft 325 kts 192°
2026-04-30 01:06 29.42834 48.42073 12305 ft 320 kts 192°
2026-04-30 01:06 29.40639 48.41707 11881 ft 317 kts 192°
2026-04-30 01:07 29.38484 48.41348 11453 ft 306 kts 192°
2026-04-30 01:07 29.36422 48.41005 11039 ft 293 kts 192°
2026-04-30 01:07 29.34464 48.40547 10636 ft 285 kts 203°
2026-04-30 01:07 29.32727 48.39513 10237 ft 280 kts 217°
2026-04-30 01:08 29.31121 48.38251 9845 ft 280 kts 217°
2026-04-30 01:08 29.29529 48.37011 9414 ft 281 kts 217°
2026-04-30 01:08 29.27916 48.35764 9030 ft 279 kts 217°
2026-04-30 01:08 29.26340 48.34554 8660 ft 277 kts 217°
2026-04-30 01:09 29.24897 48.33443 8316 ft 275 kts 218°
2026-04-30 01:09 29.23320 48.32223 7951 ft 273 kts 218°
2026-04-30 01:09 29.21755 48.31012 7585 ft 271 kts 218°
2026-04-30 01:09 29.20202 48.29811 7223 ft 267 kts 218°
2026-04-30 01:10 29.18692 48.28649 6858 ft 258 kts 218°
2026-04-30 01:10 29.17228 48.27519 6512 ft 256 kts 219°
2026-04-30 01:10 29.15757 48.26382 6151 ft 254 kts 219°
2026-04-30 01:10 29.14293 48.25249 5776 ft 254 kts 219°
2026-04-30 01:11 29.12831 48.24116 5408 ft 253 kts 219°
2026-04-30 01:11 29.11483 48.22867 5046 ft 246 kts 233°
2026-04-30 01:11 29.10592 48.21245 4682 ft 238 kts 253°
2026-04-30 01:11 29.10220 48.19441 4310 ft 231 kts 268°
2026-04-30 01:12 29.10033 48.17613 3943 ft 232 kts 267°
2026-04-30 01:12 29.09844 48.15815 3644 ft 229 kts 267°
2026-04-30 01:12 29.09652 48.14028 3427 ft 224 kts 266°
2026-04-30 01:12 29.09464 48.12286 3209 ft 218 kts 267°
2026-04-30 01:13 29.09284 48.10581 2997 ft 214 kts 267°
2026-04-30 01:13 29.09110 48.08908 2781 ft 210 kts 267°
2026-04-30 01:13 29.08950 48.07262 2560 ft 206 kts 273°
2026-04-30 01:13 29.09133 48.05694 2400 ft 192 kts 293°
2026-04-30 01:14 29.09723 48.04371 2328 ft 183 kts 311°
2026-04-30 01:14 29.10599 48.03379 2297 ft 180 kts 327°
2026-04-30 01:14 29.11692 48.02711 2161 ft 177 kts 337°
2026-04-30 01:14 29.12795 48.02127 1998 ft 171 kts 338°
2026-04-30 01:15 29.13828 48.01579 1758 ft 156 kts 338°
2026-04-30 01:15 29.14768 48.01080 1561 ft 143 kts 339°
2026-04-30 01:15 29.15658 48.00609 1382 ft 139 kts 338°
2026-04-30 01:15 29.16531 48.00146 1202 ft 138 kts 338°
2026-04-30 01:16 29.17394 47.99690 1038 ft 136 kts 338°
2026-04-30 01:16 29.18252 47.99237 821 ft 139 kts 338°
2026-04-30 01:16 29.19142 47.98763 641 ft 143 kts 338°
2026-04-30 01:16 29.20034 47.98286 463 ft 141 kts 338°
2026-04-30 01:17 29.20919 47.97815 261 ft 139 kts 338°
2026-04-30 01:17 29.21780 47.97362 167 ft 126 kts 336°
2026-04-30 01:17 29.22424 47.97020 163 ft 77 kts 335°
2026-04-30 01:17 29.22766 47.96838 162 ft 41 kts 334°
2026-04-30 01:18 29.23013 47.96705 163 ft 38 kts 335°
2026-04-30 01:18 29.23204 47.96609 164 ft 27 kts 346°
2026-04-30 01:18 29.23377 47.96621 165 ft 19 kts 21°
2026-04-30 01:18 29.23491 47.96659 167 ft 15 kts 14°
2026-04-30 01:19 29.23595 47.96648 167 ft 16 kts 334°
2026-04-30 01:19 29.23663 47.96645 167 ft 8 kts 75°
2026-04-30 01:19 29.23679 47.96698 169 ft 6 kts 63°
2026-04-30 01:19 29.23703 47.96724 169 ft 4 kts 31°
2026-04-30 01:20 29.23738 47.96733 169 ft 6 kts
2026-04-30 01:20 29.23765 47.96738 169 ft 3 kts
2026-04-30 01:20 29.23777 47.96739 169 ft 0 kts
2026-04-30 01:23 29.23777 47.96740 169 ft 0 kts